OAL463 LGAV-EGLL

Flight info

Callsign OAL463
Flight time N/A
Altitude 32000
Route KOR UL53 IPTES DCT DIMIS DCT VAKSU DCT ROTAR DCT BORMI DCT RESIA DCT ELMUR L613 HOC DCT LUL DCT RLP DCT ROTSI DCT KOTUN DCT NINAL DCT ABNUR DCT DIMAL DCT ALESO
Aircraft B77L/H-SDE1E2E3FGHIJ2J3J4J5M1RWXY/LB1D1

Departure

Time N/A
Airport Athens Eleftherios Venizelos International Airport (LGAV)

Arrival

Time 2026-05-05 10:41
Airport London Heathrow Airport (EGLL)
Time Latitude Longitude Altitude Speed Heading
2026-05-05 09:39 47.60472 6.82534 33882 ft 476 kts 280°
2026-05-05 09:40 47.61990 6.73001 33898 ft 475 kts 280°
2026-05-05 09:40 47.63503 6.63458 33900 ft 475 kts 280°
2026-05-05 09:41 47.65008 6.53913 33882 ft 476 kts 280°
2026-05-05 09:41 47.66507 6.44345 33886 ft 476 kts 280°
2026-05-05 09:42 47.68000 6.34763 33885 ft 477 kts 280°
2026-05-05 09:42 47.69670 6.25227 33899 ft 479 kts 284°
2026-05-05 09:43 47.71701 6.15787 33884 ft 481 kts 285°
2026-05-05 09:43 47.73737 6.06324 33886 ft 481 kts 284°
2026-05-05 09:44 47.75749 5.96833 33891 ft 481 kts 284°
2026-05-05 09:44 47.77727 5.87396 33891 ft 481 kts 284°
2026-05-05 09:45 47.79710 5.77887 33883 ft 481 kts 284°
2026-05-05 09:45 47.81686 5.68373 33885 ft 481 kts 284°
2026-05-05 09:46 47.83653 5.58862 33892 ft 481 kts 284°
2026-05-05 09:46 47.85611 5.49349 33885 ft 481 kts 284°
2026-05-05 09:47 47.87561 5.39844 33891 ft 480 kts 284°
2026-05-05 09:47 47.89545 5.30361 33886 ft 482 kts 288°
2026-05-05 09:48 47.92735 5.21523 33899 ft 487 kts 303°
2026-05-05 09:48 47.97164 5.13833 33907 ft 489 kts 310°
2026-05-05 09:49 48.01800 5.06389 33900 ft 490 kts 310°
2026-05-05 09:49 48.06408 4.98872 33900 ft 490 kts 310°
2026-05-05 09:50 48.10983 4.91297 33894 ft 491 kts 310°
2026-05-05 09:50 48.15520 4.83747 33892 ft 491 kts 310°
2026-05-05 09:51 48.20085 4.76137 33873 ft 491 kts 310°
2026-05-05 09:51 48.24645 4.68522 33874 ft 491 kts 310°
2026-05-05 09:52 48.29199 4.60891 33871 ft 491 kts 309°
2026-05-05 09:52 48.33744 4.53224 33868 ft 491 kts 309°
2026-05-05 09:53 48.38283 4.45545 33871 ft 491 kts 309°
2026-05-05 09:53 48.42814 4.37856 33867 ft 491 kts 309°
2026-05-05 09:54 48.47337 4.30161 33860 ft 491 kts 309°
2026-05-05 09:54 48.51863 4.22439 33861 ft 491 kts 309°
2026-05-05 09:55 48.56376 4.14712 33862 ft 491 kts 309°
2026-05-05 09:55 48.60887 4.06968 33860 ft 491 kts 309°
2026-05-05 09:56 48.63871 4.01834 33861 ft 491 kts 309°
2026-05-05 09:56 48.68376 3.94065 33860 ft 490 kts 309°
2026-05-05 09:57 48.72890 3.86332 33861 ft 491 kts 311°
2026-05-05 09:57 48.77735 3.79024 33861 ft 491 kts 314°
2026-05-05 09:58 48.81019 3.74208 33860 ft 491 kts 314°
2026-05-05 09:59 48.92089 3.57782 33860 ft 491 kts 313°
2026-05-05 09:59 48.96945 3.50491 33860 ft 490 kts 313°
2026-05-05 10:00 49.01795 3.43184 33861 ft 490 kts 313°
2026-05-05 10:00 49.06634 3.35879 33863 ft 489 kts 313°
2026-05-05 10:01 49.11433 3.28614 33861 ft 489 kts 313°
2026-05-05 10:01 49.16257 3.21291 33862 ft 489 kts 313°
2026-05-05 10:02 49.21071 3.13960 33862 ft 489 kts 313°
2026-05-05 10:02 49.25883 3.06614 33870 ft 489 kts 313°
2026-05-05 10:03 49.30689 2.99252 33871 ft 488 kts 313°
2026-05-05 10:03 49.35483 2.91884 33865 ft 487 kts 313°
2026-05-05 10:04 49.40266 2.84511 33885 ft 488 kts 313°
2026-05-05 10:04 49.45058 2.77110 33878 ft 489 kts 313°
2026-05-05 10:05 49.49847 2.69694 33881 ft 488 kts 313°
2026-05-05 10:05 49.54629 2.62262 33894 ft 488 kts 313°
2026-05-05 10:06 49.59409 2.54817 33901 ft 489 kts 313°
2026-05-05 10:06 49.64619 2.48073 33896 ft 490 kts 321°
2026-05-05 10:07 49.70086 2.41771 33891 ft 490 kts 321°
2026-05-05 10:07 49.75536 2.35447 33900 ft 490 kts 321°
2026-05-05 10:08 49.80919 2.29108 33903 ft 489 kts 321°
2026-05-05 10:08 49.86329 2.22697 33893 ft 489 kts 321°
2026-05-05 10:09 49.91733 2.16275 33896 ft 489 kts 321°
2026-05-05 10:09 49.97122 2.09859 33903 ft 489 kts 321°
2026-05-05 10:10 50.02507 2.03427 33909 ft 489 kts 321°
2026-05-05 10:10 50.07907 1.96960 33910 ft 489 kts 321°
2026-05-05 10:11 50.13295 1.90486 33916 ft 489 kts 320°
2026-05-05 10:11 50.18578 1.83826 33929 ft 487 kts 315°
2026-05-05 10:12 50.23363 1.76536 33691 ft 482 kts 313°
2026-05-05 10:12 50.25739 1.72851 33201 ft 480 kts 313°
2026-05-05 10:12 50.28100 1.69200 32707 ft 475 kts 314°
2026-05-05 10:13 50.30416 1.65638 32246 ft 471 kts 314°
2026-05-05 10:13 50.32769 1.62034 31761 ft 466 kts 314°
2026-05-05 10:13 50.35051 1.58538 31284 ft 462 kts 314°
2026-05-05 10:13 50.37368 1.54986 30817 ft 458 kts 314°
2026-05-05 10:14 50.39494 1.51722 30361 ft 454 kts 314°
2026-05-05 10:14 50.41242 1.49035 30000 ft 451 kts 314°
2026-05-05 10:14 50.43268 1.45914 29558 ft 447 kts 314°
2026-05-05 10:14 50.45257 1.42849 29146 ft 444 kts 314°
2026-05-05 10:15 50.47438 1.39483 28676 ft 440 kts 314°
2026-05-05 10:15 50.49609 1.36126 28219 ft 436 kts 314°
2026-05-05 10:15 50.51511 1.33010 27799 ft 432 kts 311°
2026-05-05 10:15 50.53539 1.29550 27344 ft 429 kts 313°
2026-05-05 10:16 50.55613 1.26212 26906 ft 425 kts 314°
2026-05-05 10:16 50.57701 1.22941 26453 ft 422 kts 314°
2026-05-05 10:16 50.59782 1.19692 26011 ft 418 kts 314°
2026-05-05 10:16 50.61837 1.16460 25573 ft 415 kts 314°
2026-05-05 10:17 50.63860 1.13257 25151 ft 412 kts 314°
2026-05-05 10:17 50.65866 1.10060 24715 ft 409 kts 314°
2026-05-05 10:17 50.67854 1.06878 24284 ft 406 kts 314°
2026-05-05 10:17 50.69826 1.03711 23865 ft 403 kts 314°
2026-05-05 10:18 50.71781 1.00569 23454 ft 400 kts 314°
2026-05-05 10:18 50.73726 0.97437 23039 ft 397 kts 314°
2026-05-05 10:18 50.75649 0.94337 22622 ft 395 kts 314°
2026-05-05 10:18 50.77568 0.91242 22199 ft 392 kts 314°
2026-05-05 10:19 50.79466 0.88176 21798 ft 389 kts 314°
2026-05-05 10:19 50.81349 0.85132 21388 ft 386 kts 314°
2026-05-05 10:19 50.83220 0.82102 20978 ft 384 kts 314°
2026-05-05 10:19 50.85078 0.79091 20576 ft 381 kts 314°
2026-05-05 10:20 50.86897 0.76138 20168 ft 378 kts 314°
2026-05-05 10:20 50.88726 0.73164 19749 ft 375 kts 314°
2026-05-05 10:20 50.90562 0.70176 19353 ft 373 kts 314°
2026-05-05 10:20 50.92364 0.67242 18946 ft 370 kts 314°
2026-05-05 10:21 50.94128 0.64364 18545 ft 367 kts 314°
2026-05-05 10:21 50.95919 0.61442 18157 ft 363 kts 314°
2026-05-05 10:21 50.97654 0.58612 17687 ft 363 kts 314°
2026-05-05 10:21 50.99431 0.55735 17136 ft 365 kts 314°
2026-05-05 10:22 51.01212 0.52858 16584 ft 366 kts 314°
2026-05-05 10:22 51.03002 0.49965 16046 ft 367 kts 314°
2026-05-05 10:22 51.04794 0.47060 15486 ft 368 kts 314°
2026-05-05 10:22 51.06574 0.44170 14910 ft 358 kts 314°
2026-05-05 10:23 51.08304 0.41445 14388 ft 346 kts 316°
2026-05-05 10:23 51.09453 0.39699 14054 ft 346 kts 316°
2026-05-05 10:23 51.11801 0.36160 13358 ft 347 kts 316°
2026-05-05 10:23 51.13550 0.33512 12841 ft 348 kts 316°
2026-05-05 10:24 51.15298 0.30848 12316 ft 348 kts 316°
2026-05-05 10:24 51.17043 0.28180 11848 ft 347 kts 316°
2026-05-05 10:24 51.18760 0.25550 11291 ft 338 kts 316°
2026-05-05 10:24 51.20426 0.22993 10762 ft 327 kts 316°
2026-05-05 10:25 51.22040 0.20514 10263 ft 317 kts 316°
2026-05-05 10:25 51.23601 0.18116 9814 ft 306 kts 316°
2026-05-05 10:25 51.25090 0.15823 9487 ft 290 kts 316°
2026-05-05 10:25 51.26513 0.13579 8914 ft 284 kts 315°
2026-05-05 10:26 51.27962 0.11522 8392 ft 275 kts 316°
2026-05-05 10:26 51.29022 0.09014 7950 ft 274 kts 288°
2026-05-05 10:26 51.29419 0.06071 7572 ft 271 kts 278°
2026-05-05 10:26 51.29614 0.03085 7215 ft 268 kts 276°
2026-05-05 10:27 51.29786 0.00129 6987 ft 266 kts 276°
2026-05-05 10:27 51.29952 -0.02795 7004 ft 269 kts 276°
2026-05-05 10:27 51.30113 -0.05765 6999 ft 267 kts 276°
2026-05-05 10:27 51.30269 -0.08710 6988 ft 265 kts 276°
2026-05-05 10:28 51.30423 -0.11639 6987 ft 265 kts 276°
2026-05-05 10:28 51.30576 -0.14570 6993 ft 265 kts 276°
2026-05-05 10:28 51.30727 -0.17498 6993 ft 265 kts 276°
2026-05-05 10:28 51.30879 -0.20434 6990 ft 265 kts 276°
2026-05-05 10:29 51.31030 -0.23375 6987 ft 266 kts 276°
2026-05-05 10:29 51.31182 -0.26319 6981 ft 266 kts 276°
2026-05-05 10:29 51.31334 -0.29273 6986 ft 267 kts 276°
2026-05-05 10:29 51.31487 -0.32229 6985 ft 267 kts 276°
2026-05-05 10:30 51.31587 -0.34184 6987 ft 267 kts 276°
2026-05-05 10:30 51.31913 -0.40580 6995 ft 266 kts 276°
2026-05-05 10:30 51.32058 -0.43487 6992 ft 266 kts 276°
2026-05-05 10:31 51.32209 -0.46433 6986 ft 266 kts 276°
2026-05-05 10:31 51.32361 -0.49410 6995 ft 265 kts 276°
2026-05-05 10:31 51.32509 -0.52344 6978 ft 264 kts 276°
2026-05-05 10:31 51.32657 -0.55265 6761 ft 263 kts 276°
2026-05-05 10:32 51.32801 -0.58160 6393 ft 259 kts 276°
2026-05-05 10:32 51.32943 -0.61021 5792 ft 259 kts 276°
2026-05-05 10:32 51.33085 -0.63873 5281 ft 255 kts 276°
2026-05-05 10:32 51.33176 -0.65720 5020 ft 248 kts 276°
2026-05-05 10:33 51.33345 -0.69249 4609 ft 231 kts 276°
2026-05-05 10:33 51.33463 -0.71766 4294 ft 219 kts 276°
2026-05-05 10:33 51.33568 -0.74120 3899 ft 212 kts 276°
2026-05-05 10:33 51.33759 -0.76439 3470 ft 207 kts 292°
2026-05-05 10:34 51.34626 -0.78219 3134 ft 205 kts 332°
2026-05-05 10:34 51.36000 -0.78831 3031 ft 208 kts 356°
2026-05-05 10:34 51.37413 -0.78893 3026 ft 197 kts
2026-05-05 10:34 51.38758 -0.78872 2993 ft 192 kts
2026-05-05 10:35 51.39651 -0.78848 3000 ft 188 kts
2026-05-05 10:35 51.41377 -0.78804 2991 ft 186 kts
2026-05-05 10:35 51.42662 -0.78763 2983 ft 184 kts
2026-05-05 10:35 51.43935 -0.78725 2989 ft 182 kts
2026-05-05 10:36 51.45202 -0.78686 2989 ft 181 kts
2026-05-05 10:36 51.46435 -0.78394 2977 ft 177 kts 23°
2026-05-05 10:36 51.47287 -0.77043 3005 ft 182 kts 71°
2026-05-05 10:36 51.47449 -0.74981 3015 ft 190 kts 82°
2026-05-05 10:37 51.47618 -0.72860 2874 ft 193 kts 83°
2026-05-05 10:37 51.47673 -0.70736 2675 ft 188 kts 87°
2026-05-05 10:37 51.47682 -0.68686 2470 ft 180 kts 88°
2026-05-05 10:37 51.47679 -0.66737 2243 ft 172 kts 88°
2026-05-05 10:38 51.47687 -0.64786 2075 ft 176 kts 88°
2026-05-05 10:38 51.47696 -0.62868 1840 ft 166 kts 88°
2026-05-05 10:38 51.47704 -0.61046 1636 ft 162 kts 88°
2026-05-05 10:38 51.47709 -0.59233 1425 ft 163 kts 88°
2026-05-05 10:39 51.47715 -0.58028 1267 ft 164 kts 89°
2026-05-05 10:39 51.47723 -0.55613 966 ft 161 kts 89°
2026-05-05 10:39 51.47729 -0.53838 767 ft 161 kts 89°
2026-05-05 10:39 51.47736 -0.52043 559 ft 161 kts 89°
2026-05-05 10:40 51.47747 -0.50256 328 ft 160 kts 89°
2026-05-05 10:40 51.47742 -0.48488 118 ft 157 kts 89°
2026-05-05 10:40 51.47758 -0.46891 96 ft 120 kts 89°
2026-05-05 10:40 51.47758 -0.45924 92 ft 53 kts 91°
2026-05-05 10:41 51.47757 -0.45574 93 ft 26 kts 90°
2026-05-05 10:41 51.47672 -0.45458 90 ft 5 kts 185°
2026-05-05 10:41 51.47669 -0.45459 90 ft 0 kts 185°